[[{"header":{"parameterUnit":"m.s-1","parameterCategory":1,"la1":30.2991,"la2":30.254,"lo1":-89.0895,"lo2":-89.0444,"dy":0.0017,"dx":0.0017,"nx":28,"ny":28,"refTime":"2024-07-16T21:00:00:Z","depth":0,"parameterNumber":2,"parameterNumberName":"U-component_of_WINDS"},"data":[0,0,0,0,0,0,0,0,0,0,0,0,0,0,0,0,0,0,0,0,0,0,0,0,0,0,0,0,0,0,0,0,0,0,0,0,0,0,0,0,0,0,0,0,0,0,0,0,0,0,0,0,0,0,0,0,0,0,2.6615,2.6616,0,2.6744,2.6746,2.6747,2.6757,2.6756,2.6754,2.6753,2.6887,2.6892,2.6897,0,0,0,0,0,0,0,0,0,0,0,0,0,2.6378,2.6382,2.6615,2.6617,2.6618,2.6744,2.6746,2.6748,2.6757,2.6756,2.6754,2.6752,2.6886,2.6891,2.6897,0,0,0,0,0,0,0,0,0,0,0,0,0,2.6491,2.6383,2.6615,2.6638,2.6642,2.6744,2.6746,2.6748,2.6758,2.6756,2.6753,2.6751,2.6884,2.6891,2.6898,2.6986,0,0,2.6921,2.6924,0,0,0,0,0,0,0,0,2.6485,2.65,2.6633,2.6637,2.6641,2.6732,2.6712,2.6828,2.6758,2.6714,2.6753,2.675,2.6838,2.6849,2.6878,2.6993,2.6998,2.6921,2.6926,2.6929,2.6931,0,0,0,0,0,0,0,2.6477,2.6495,2.6666,2.6635,2.664,2.6643,2.6656,2.6734,2.6786,2.6717,2.6718,2.6733,2.6839,2.687,2.6881,2.7,2.6921,2.6928,2.6932,2.6935,2.7194,2.7196,0,0,0,0,0,0,2.6464,2.6488,2.6662,2.667,2.6556,2.6649,2.6664,2.6705,2.6785,2.6795,2.6735,2.6733,2.6859,2.6872,2.6886,2.6994,2.6929,2.6936,2.694,2.7192,2.7195,2.7197,0,0,0,0,0,0,2.6459,2.648,2.6657,2.6579,2.6602,2.6655,2.6701,2.6709,2.674,2.6799,2.6808,2.6757,2.6858,2.6875,2.6961,2.6998,2.6939,2.6946,2.7189,2.7192,2.7196,2.721,0,0,0,0,0,0,2.6452,2.6478,2.6512,2.658,2.6606,2.673,2.6703,2.6713,2.6752,2.6751,2.6822,2.6832,2.6857,2.695,2.6968,2.7007,2.6951,2.7186,2.719,2.7195,2.7207,2.7214,2.722,0,0,0,0,0,2.6444,2.6511,2.6513,2.6534,2.6649,2.6732,2.6747,2.6774,2.6755,2.679,2.6828,2.6829,2.6992,2.6959,2.6979,2.7021,2.7183,2.7189,2.7194,2.7204,2.7213,2.722,0,0,0,0,0,0,2.6446,2.652,2.6524,2.6615,2.6667,2.6733,2.6777,2.6783,2.6842,2.6839,2.6871,2.6887,2.6972,2.7006,2.6967,2.7111,2.7085,2.7095,2.7085,2.7094,2.7101,2.7091,2.6958,0,0,0,0,0,2.6457,2.6517,2.6579,2.6654,2.668,2.6724,2.6761,2.6778,2.6833,2.6856,2.69,2.6954,2.7017,2.7058,2.7119,2.7212,2.7227,2.7251,2.7258,2.7263,2.7271,2.7322,2.7333,2.7215,2.7215,2.7215,0,0,2.648,2.6529,2.6565,2.6655,2.6698,2.676,2.6742,2.6809,2.6855,2.6866,2.6949,2.6983,2.7046,2.7136,2.7177,2.7166,2.7307,2.727,2.7274,2.7279,2.7329,2.734,2.735,2.7219,2.7219,2.7218,0,0,2.6554,2.6597,2.6663,2.6706,2.677,2.6799,2.6815,2.6881,2.6904,2.6988,2.6997,2.7053,2.7162,2.7206,2.7242,2.7333,2.7337,2.7353,2.7388,2.7437,2.7446,2.7455,2.7486,2.7498,2.736,2.7361,2.7361,0,2.6575,2.6669,2.6697,2.6763,2.6803,2.6815,2.6882,2.6923,2.7004,2.7031,2.7017,2.7153,2.7196,2.7296,2.7318,2.7348,2.7367,2.7344,2.7443,2.7451,2.746,2.749,2.7502,2.7362,2.7362,2.7362,2.7361,0,2.6691,2.6756,2.6802,2.6879,2.6924,2.699,2.7029,2.7071,2.7085,2.7115,2.7201,2.7253,2.7325,2.735,2.7364,2.7452,2.7443,2.7436,2.7411,2.7472,2.7501,2.7513,2.7364,2.7363,2.7363,2.7363,0,0,2.6769,2.6861,2.6877,2.6912,2.6984,2.7035,2.7102,2.7172,2.7207,2.7263,2.732,2.7412,2.7405,2.7447,2.7466,2.751,2.7578,2.7497,2.7499,2.7509,2.7677,2.7681,2.7694,2.7581,2.7583,2.7585,2.7671,0,2.685,2.6969,2.6997,2.7099,2.7159,2.7172,2.7231,2.7281,2.7312,2.7368,2.7402,2.7466,2.7453,2.7478,2.7522,2.756,2.7611,2.7554,2.7634,2.7637,2.7617,2.7709,2.7714,2.7793,2.7683,2.7685,2.7686,0,2.696,2.7018,2.7126,2.719,2.7216,2.7268,2.7334,2.7387,2.7445,2.7465,2.7511,2.7526,2.7597,2.7569,2.7667,2.7627,2.7662,2.7685,2.7689,2.7697,2.7664,2.7719,2.7819,2.783,2.7705,2.7703,2.7702,0,2.7005,2.711,2.7188,2.7218,2.7294,2.7331,2.7364,2.742,2.746,2.7519,2.7545,2.7611,2.7647,2.7698,2.773,2.7707,2.7825,2.78,2.7843,2.7842,2.7866,2.7864,2.7972,2.789,2.789,2.789,2.789,0,2.7092,2.7157,2.7209,2.7257,2.7331,2.7362,2.7435,2.7469,2.7518,2.7573,2.7589,2.764,2.768,2.7738,2.7764,2.784,2.7857,2.7874,2.788,2.7872,2.787,2.7894,2.7889,2.7893,2.7892,2.7892,2.7891,0,2.7154,2.7191,2.7277,2.7342,2.736,2.7412,2.7468,2.7515,2.7547,2.7616,2.7634,2.7684,2.7751,2.7789,2.7875,2.7892,2.7977,2.7981,2.7957,2.796,2.8,2.7995,2.8126,2.8145,2.8052,2.8053,2.8054,0,2.7206,2.7256,2.7327,2.7365,2.7399,2.746,2.7501,2.7535,2.7577,2.7646,2.7685,2.7754,2.7811,2.7919,2.7962,2.8028,2.8033,2.8074,2.8042,2.8033,2.8032,2.8028,2.8033,2.8079,2.808,2.8081,2.8081,0,2.7294,2.731,2.7368,2.7433,2.7482,2.7534,2.7587,2.7617,2.7659,2.7706,2.7775,2.7819,2.7906,2.7974,2.8043,2.8078,2.8087,2.8091,2.8104,2.8096,2.808,2.8088,2.7971,2.8088,2.8087,2.8086,2.8086,2.8086,2.7352,2.7398,2.7455,2.7519,2.7562,2.761,2.7658,2.7695,2.7753,2.7826,2.7843,2.7916,2.7973,2.8066,2.8103,2.8161,2.8153,2.8173,2.8177,2.8181,2.8182,2.8071,2.8174,2.8174,2.8174,2.8174,2.8174,0,2.7441,2.7478,2.7537,2.7609,2.766,2.7664,2.7722,2.7764,2.7828,2.788,2.7935,2.8015,2.8081,2.813,2.8198,2.8235,2.824,2.8251,2.8248,2.8256,2.8186,2.8167,2.8245,2.8245,2.8245,2.8245,2.8245,2.8245,2.7492,2.7569,2.7592,2.769,2.7727,2.7798,2.7831,2.7876,2.7918,2.8006,2.8061,2.8092,2.8143,2.8215,2.8276,2.8288,2.8312,2.8322,2.8335,2.8269,2.8261,2.8254,2.8236,2.8328,2.8328,2.8401,2.8401,2.8402]},{"header":{"parameterUnit":"m.s-1","parameterCategory":1,"la1":30.2991,"la2":30.254,"lo1":-89.0895,"lo2":-89.0444,"dy":0.0017,"dx":0.0017,"nx":28,"ny":28,"refTime":"2024-07-16T21:00:00:Z","depth":0,"parameterNumber":3,"parameterNumberName":"V-component_of_WINDS"},"data":[0,0,0,0,0,0,0,0,0,0,0,0,0,0,0,0,0,0,0,0,0,0,0,0,0,0,0,0,0,0,0,0,0,0,0,0,0,0,0,0,0,0,0,0,0,0,0,0,0,0,0,0,0,0,0,0,0,0,3.968,3.968,0,3.9731,3.9731,3.9732,3.9753,3.9753,3.9753,3.9752,3.9799,3.98,3.9801,0,0,0,0,0,0,0,0,0,0,0,0,0,3.9595,3.9597,3.968,3.968,3.9681,3.973,3.9731,3.9732,3.9753,3.9753,3.9753,3.9752,3.9798,3.98,3.9801,0,0,0,0,0,0,0,0,0,0,0,0,0,3.9637,3.9597,3.968,3.9698,3.97,3.973,3.9731,3.9732,3.9753,3.9753,3.9753,3.9752,3.9798,3.98,3.9801,3.9816,0,0,3.9807,3.9808,0,0,0,0,0,0,0,0,3.9635,3.964,3.9694,3.9696,3.9699,3.9735,3.9718,3.976,3.9753,3.9732,3.9752,3.9752,3.9777,3.9781,3.979,3.9818,3.982,3.9808,3.9809,3.981,3.981,0,0,0,0,0,0,0,3.9632,3.9638,3.97,3.9695,3.9698,3.9701,3.9707,3.9726,3.9755,3.9734,3.9736,3.9742,3.9778,3.9789,3.9792,3.9821,3.9808,3.9809,3.9811,3.9811,3.9863,3.9863,0,0,0,0,0,0,3.9627,3.9636,3.9698,3.9701,3.9666,3.9703,3.9709,3.9724,3.9755,3.9759,3.9742,3.9743,3.9785,3.9789,3.9793,3.9813,3.981,3.9812,3.9813,3.9863,3.9863,3.9863,0,0,0,0,0,0,3.9625,3.9632,3.9696,3.9669,3.9677,3.9705,3.972,3.9725,3.9735,3.9761,3.9765,3.9748,3.9785,3.9791,3.9811,3.9815,3.9812,3.9814,3.9863,3.9863,3.9863,3.9852,0,0,0,0,0,0,3.9623,3.9632,3.9639,3.9669,3.9679,3.9714,3.9721,3.9726,3.9739,3.974,3.9767,3.9771,3.9786,3.9808,3.9813,3.9817,3.9816,3.9862,3.9863,3.9863,3.9852,3.9851,3.9851,0,0,0,0,0,3.9619,3.9632,3.9639,3.9646,3.9689,3.9714,3.972,3.9738,3.9739,3.9746,3.9762,3.977,3.9813,3.981,3.9815,3.9821,3.9862,3.9863,3.9863,3.9852,3.9852,3.9851,0,0,0,0,0,0,3.9599,3.9637,3.9645,3.9668,3.9688,3.9718,3.9727,3.9737,3.9756,3.9756,3.9775,3.9781,3.98,3.9812,3.9807,3.9836,3.9838,3.984,3.9828,3.9828,3.9827,3.9824,3.9817,0,0,0,0,0,3.9598,3.9618,3.9648,3.9666,3.9676,3.97,3.9711,3.9724,3.9745,3.9753,3.9771,3.9789,3.9807,3.9818,3.9835,3.9853,3.9859,3.986,3.986,3.9859,3.986,3.9871,3.9871,3.9865,3.9865,3.9865,0,0,3.9595,3.9618,3.9628,3.9663,3.968,3.9698,3.9707,3.9725,3.9739,3.9755,3.9776,3.9789,3.9811,3.983,3.9839,3.9841,3.9863,3.986,3.9859,3.9861,3.9871,3.9872,3.9872,3.9865,3.9865,3.9865,0,0,3.9599,3.9618,3.9635,3.9653,3.9679,3.9695,3.9699,3.9727,3.9738,3.9759,3.9772,3.9787,3.9817,3.9832,3.9843,3.9853,3.9861,3.9858,3.9856,3.9866,3.9866,3.9867,3.987,3.9871,3.9859,3.9859,3.9859,0,3.9591,3.9621,3.9642,3.9661,3.9675,3.9692,3.9709,3.9724,3.9754,3.9762,3.9764,3.9803,3.9818,3.9841,3.9844,3.9852,3.9856,3.9855,3.9865,3.9866,3.9867,3.987,3.9871,3.9858,3.9858,3.9858,3.9858,0,3.961,3.963,3.964,3.9672,3.9687,3.9704,3.9726,3.9738,3.9749,3.9764,3.9785,3.9804,3.9827,3.9833,3.9842,3.9857,3.9857,3.9862,3.9864,3.9866,3.987,3.9871,3.9857,3.9858,3.9858,3.9858,0,0,3.9602,3.9646,3.9649,3.9663,3.9694,3.9709,3.9726,3.975,3.976,3.978,3.9794,3.9819,3.9824,3.9837,3.9848,3.9857,3.9863,3.986,3.9861,3.986,3.9879,3.9876,3.9877,3.9868,3.9869,3.9869,3.9878,0,3.961,3.9645,3.9664,3.969,3.9709,3.9725,3.974,3.976,3.9774,3.979,3.9805,3.9823,3.9828,3.9836,3.9845,3.986,3.9867,3.986,3.9881,3.9881,3.9875,3.9879,3.9875,3.9883,3.9879,3.9879,3.9879,0,3.9624,3.9646,3.9675,3.9704,3.9712,3.9725,3.9749,3.9764,3.9786,3.9796,3.981,3.9822,3.9839,3.984,3.9864,3.9858,3.9868,3.9876,3.9877,3.988,3.9881,3.9882,3.9886,3.9887,3.9882,3.9882,3.9881,0,3.9616,3.9653,3.9675,3.9686,3.972,3.9729,3.9743,3.9765,3.9778,3.9797,3.9805,3.9825,3.9836,3.9851,3.9867,3.9866,3.9888,3.9891,3.9896,3.9895,3.99,3.9899,3.9906,3.9906,3.9906,3.9906,3.9906,0,3.9623,3.964,3.9672,3.9685,3.9703,3.9724,3.9741,3.9757,3.9776,3.9791,3.9805,3.9819,3.9839,3.9855,3.9867,3.9884,3.9889,3.9896,3.9899,3.9895,3.9894,3.9902,3.9902,3.9906,3.9906,3.9906,3.9906,0,3.9618,3.964,3.9665,3.9695,3.9703,3.9715,3.9741,3.9753,3.9768,3.9787,3.9793,3.9816,3.9835,3.9853,3.9877,3.9885,3.9903,3.9906,3.9896,3.9898,3.9902,3.9901,3.9913,3.9915,3.9914,3.9914,3.9914,0,3.9621,3.9635,3.9667,3.968,3.9694,3.9713,3.9727,3.9748,3.9761,3.9787,3.9796,3.9816,3.9834,3.9863,3.9881,3.9899,3.9904,3.9907,3.9907,3.9902,3.9904,3.9903,3.9904,3.9906,3.9906,3.9906,3.9906,0,3.9624,3.9635,3.9655,3.968,3.9696,3.9716,3.9735,3.9744,3.9768,3.9781,3.9802,3.9816,3.9842,3.9862,3.9883,3.9895,3.9904,3.9906,3.9908,3.9904,3.9898,3.9901,3.9895,3.9906,3.9906,3.9906,3.9906,3.9906,3.9623,3.9636,3.9662,3.9684,3.9701,3.9719,3.9733,3.975,3.9769,3.9793,3.9803,3.9824,3.9844,3.9874,3.9886,3.9901,3.9903,3.9906,3.9907,3.9908,3.9907,3.9895,3.9905,3.9905,3.9905,3.9905,3.9905,0,3.9628,3.9645,3.9665,3.9694,3.9711,3.972,3.9742,3.9755,3.9774,3.9793,3.9811,3.9834,3.9853,3.9872,3.9892,3.9901,3.9905,3.9905,3.9905,3.9907,3.9904,3.99,3.9901,3.9901,3.9901,3.9901,3.9901,3.9901,3.9632,3.9654,3.9668,3.9698,3.9715,3.9737,3.9749,3.9765,3.9781,3.9807,3.9824,3.9837,3.9856,3.9877,3.9895,3.99,3.9906,3.9905,3.9911,3.9907,3.9908,3.9908,3.9904,3.9906,3.9906,3.9913,3.9913,3.9913]}]]